Stations météo

Publicité
Cap Bear, France (7749): Température de l'air & dewpoint: 18.01.2021 07:00:00 - 24.01.2021 07:00:00 (CET)Cap Bear, France (7749): Vitesse du vent & gusts: 18.01.2021 07:00:00 - 24.01.2021 07:00:00 (CET)Cap Bear, France (7749): Direction du vent: 18.01.2021 07:00:00 - 24.01.2021 07:00:00 (CET)Cap Bear, France (7749): reduced air pressure: 18.01.2021 07:00:00 - 24.01.2021 07:00:00 (CET)Cap Bear, France (7749): visibility: 18.01.2021 07:00:00 - 24.01.2021 07:00:00 (CET)Cap Bear, France (7749): Quantités de précipitations: 18.01.2021 07:00:00 - 24.01.2021 07:00:00 (CET)
Date & Time tt [°C] td [°C] ff [km/h] ff [knt] fx [km/h] fx [knt] dd ppp [hPa] vv [km] rr [mm]
24.01.2021 07:00:00 7,4 6,2 72 39 83 45 NNW 1000,9 - 0,0
24.01.2021 06:00:00 7,5 6,6 47 25 56 30 N 1000,2 - 0,0
24.01.2021 05:00:00 7,0 5,1 18 10 46 25 NW 999,4 - 0,2
24.01.2021 04:00:00 7,6 5,6 16 9 21 11 NW 998,2 - 0,0
24.01.2021 03:00:00 8,2 5,3 14 8 22 12 NW 998,4 - 0,0
24.01.2021 02:00:00 9,1 6,0 13 7 24 13 NNW 999,4 - 0,0
24.01.2021 01:00:00 9,5 5,7 15 8 23 12 NE 999,4 - 0,0
24.01.2021 00:00:00 9,6 5,8 6 3 11 6 E 1000,6 - 0,0
23.01.2021 23:00:00 9,1 5,5 6 3 16 9 SSW 1000,6 - 0,0
23.01.2021 22:00:00 9,9 6,4 14 8 28 15 NNW 1001,7 - 0,0
23.01.2021 21:00:00 10,0 6,7 23 12 30 16 N 1001,9 - 0,0
23.01.2021 20:00:00 10,1 6,4 6 3 16 9 SE 1002,1 - 0,0
23.01.2021 19:00:00 10,4 6,7 18 10 31 17 N 1001,8 - 0,0
23.01.2021 18:00:00 11,5 7,4 16 9 42 23 N 1001,9 - 0,0
23.01.2021 17:00:00 13,0 5,9 9 5 42 23 NNW 1001,7 - 0,0
23.01.2021 16:00:00 14,7 6,0 31 17 51 28 SSW 1001,2 - 0,0
23.01.2021 15:00:00 14,5 - 23 12 37 20 SSW - - 0,0
23.01.2021 14:00:00 15,3 - 22 12 39 21 SSW - - 0,0
23.01.2021 13:00:00 14,7 - 26 14 40 22 SSW - 25 0,0
23.01.2021 12:00:00 14,8 - 12 7 24 13 S - - 0,0
23.01.2021 11:00:00 11,7 - 10 5 39 21 WSW - - 0,0
23.01.2021 10:00:00 12,2 - 25 13 38 21 SSW - - 0,0
23.01.2021 09:00:00 9,1 - 26 14 35 19 S - - 0,0
23.01.2021 08:00:00 8,0 - 28 15 33 18 S - - 0,0
23.01.2021 07:00:00 7,7 - 16 8 23 13 S - - 0,0
23.01.2021 06:00:00 8,5 - 10 6 37 20 S - - 0,0
23.01.2021 05:00:00 9,5 - 21 11 43 23 WNW - - 0,0
23.01.2021 04:00:00 10,4 - 27 15 61 33 NW - - 0,0
23.01.2021 03:00:00 9,6 1,2 39 21 72 39 WNW 1007,9 - 0,0
23.01.2021 02:00:00 8,8 1,7 17 9 82 44 W 1008,3 - 0,0
23.01.2021 01:00:00 9,6 3,8 69 38 112 61 NNW 1006,6 - 0,0
23.01.2021 00:00:00 9,7 3,4 63 34 109 59 NNW 1006,6 - 0,0
22.01.2021 23:00:00 9,9 3,0 86 47 109 59 NNW 1004,0 - 0,0
22.01.2021 22:00:00 9,8 2,4 77 41 106 58 NNW 1004,4 25 0,0
22.01.2021 21:00:00 9,7 3,0 88 48 124 67 NNW 1003,0 - 0,0
22.01.2021 20:00:00 9,9 2,3 106 57 152 82 NW 1001,4 - 0,0
22.01.2021 19:00:00 10,7 2,0 79 42 152 82 NW 1001,3 25 0,0
22.01.2021 18:00:00 11,2 2,2 113 61 150 81 NW 996,4 - 0,0
22.01.2021 17:00:00 11,6 2,6 100 54 140 75 NW 996,8 - 0,2
22.01.2021 16:00:00 11,9 4,8 55 30 89 48 NNW 996,8 - 0,0
22.01.2021 15:00:00 12,4 5,5 16 9 64 35 WSW 997,0 - 0,0
22.01.2021 14:00:00 11,6 6,1 53 29 81 44 NW 995,9 - 0,0
22.01.2021 13:00:00 10,6 6,2 33 18 75 40 NW 995,9 25 0,0
22.01.2021 12:00:00 9,5 6,2 35 19 54 29 NW 996,0 - 0,0
22.01.2021 11:00:00 9,2 6,8 44 24 88 48 WNW 996,6 - 2,2
22.01.2021 10:00:00 13,6 8,6 19 10 56 30 SSW 994,9 15 0,2
22.01.2021 09:00:00 14,6 7,4 30 16 68 37 SSE 995,2 - 0,0
22.01.2021 08:00:00 9,5 9,5 16 8 42 23 NNW 996,8 - 0,0
22.01.2021 07:00:00 7,9 7,6 20 11 31 17 NNW 998,2 5 0,0
22.01.2021 06:00:00 8,8 8,3 18 10 26 14 NNW 1000,1 - 0,0
22.01.2021 05:00:00 8,8 8,5 13 7 23 12 NNW 1001,3 - 0,0
22.01.2021 04:00:00 8,5 8,4 11 6 23 13 NW 1002,5 - 0,0
22.01.2021 03:00:00 8,6 8,3 17 9 32 18 NW 1003,1 - 0,0
22.01.2021 02:00:00 8,2 7,6 23 12 29 16 NW 1003,9 - 0,0
22.01.2021 01:00:00 9,2 8,3 10 5 15 8 NNW 1004,6 - 0,0
22.01.2021 00:00:00 9,6 8,5 5 3 20 11 NNE 1005,4 - 0,0
21.01.2021 23:00:00 10,0 8,3 6 3 22 12 NNW 1005,8 - 0,0
21.01.2021 22:00:00 9,9 8,5 19 10 25 14 NW 1006,0 15 0,0
21.01.2021 21:00:00 10,4 8,7 13 7 28 15 NW 1006,2 - 0,0
21.01.2021 20:00:00 10,4 9,0 27 15 33 18 NW 1006,7 - 0,0
21.01.2021 19:00:00 10,4 8,8 28 15 34 18 NW 1006,3 20 0,0
21.01.2021 18:00:00 10,6 9,2 29 16 35 19 NW 1005,7 - 0,0
21.01.2021 17:00:00 10,9 9,2 26 14 30 16 WNW 1005,1 - 0,0
21.01.2021 16:00:00 12,2 9,8 19 10 38 21 SSE 1005,4 - 0,0
21.01.2021 15:00:00 12,5 9,1 28 15 35 19 SSE 1005,4 - 0,0
21.01.2021 14:00:00 11,6 8,8 8 5 13 7 SE 1006,7 - 0,0
21.01.2021 13:00:00 12,6 8,9 8 4 15 8 NE 1008,2 - 0,0
21.01.2021 12:00:00 11,7 8,2 15 8 26 14 NNW 1009,4 - 0,0
21.01.2021 11:00:00 11,3 7,2 18 10 32 17 NW 1009,8 - 0,0
21.01.2021 10:00:00 10,9 6,4 22 12 40 22 WNW 1009,6 20 0,0
21.01.2021 09:00:00 10,0 6,0 30 16 46 25 NW 1008,9 - 0,0
21.01.2021 08:00:00 10,2 6,5 29 16 38 21 NW 1008,5 - 0,0
21.01.2021 07:00:00 10,6 6,5 26 14 39 21 NW 1008,0 - 0,0
21.01.2021 06:00:00 9,9 5,1 23 12 29 16 NW 1007,2 - 0,0
21.01.2021 05:00:00 10,2 5,2 23 12 31 17 NW 1006,9 - 0,0
21.01.2021 04:00:00 10,6 4,7 19 10 22 12 NW 1006,7 20 0,0
21.01.2021 03:00:00 10,2 5,0 14 7 18 10 NW 1006,3 - 0,0
21.01.2021 02:00:00 10,9 6,0 14 7 21 11 NW 1005,7 - 0,0
21.01.2021 01:00:00 11,5 6,8 16 9 53 29 NNW 1005,0 20 0,0
21.01.2021 00:00:00 11,2 5,7 40 22 90 49 SSW 1004,1 - 0,0
20.01.2021 23:00:00 11,0 6,3 55 30 105 57 SSW 1003,3 - 0,0
20.01.2021 22:00:00 11,1 7,0 49 26 113 61 S 1003,4 - 0,0
20.01.2021 21:00:00 11,7 7,4 74 40 103 56 S 1002,8 - 0,0
20.01.2021 20:00:00 12,0 7,3 77 41 98 53 S 1003,5 - 0,0
20.01.2021 19:00:00 12,1 7,8 67 36 79 42 S 1005,1 - 0,0
20.01.2021 18:00:00 12,6 7,5 33 18 58 31 S 1007,5 - 0,0
20.01.2021 17:00:00 13,2 7,6 45 24 82 45 S 1007,3 - 0,0
20.01.2021 16:00:00 13,8 6,9 71 38 98 53 S 1005,9 20 0,0
20.01.2021 15:00:00 13,3 6,6 59 32 85 46 S 1006,3 - 0,0
20.01.2021 14:00:00 13,2 6,5 40 22 76 41 SSE 1007,7 - 0,0
20.01.2021 13:00:00 13,6 5,7 38 20 85 46 S 1008,4 - 0,0
20.01.2021 12:00:00 13,1 6,2 49 26 77 41 S 1009,6 - 0,0
20.01.2021 11:00:00 11,9 5,3 49 27 74 40 S 1010,4 - 0,0
20.01.2021 10:00:00 10,8 4,3 49 26 82 44 S 1010,8 20 0,0
20.01.2021 09:00:00 10,0 3,3 49 27 77 41 S 1011,0 - 0,0
20.01.2021 08:00:00 9,6 2,9 38 21 54 29 S 1011,8 - 0,0
20.01.2021 07:00:00 7,4 3,4 20 11 32 17 S 1013,1 - 0,0
20.01.2021 06:00:00 6,8 3,8 6 3 41 22 W 1013,6 - 0,0
20.01.2021 05:00:00 7,0 4,0 16 9 36 19 SW 1014,3 - 0,0
20.01.2021 04:00:00 7,2 4,8 4 2 13 7 WSW 1015,4 20 0,0
20.01.2021 03:00:00 6,8 4,5 10 6 16 9 NW 1016,4 - 0,0
20.01.2021 02:00:00 8,1 5,6 8 4 17 9 NW 1016,9 - 0,0
20.01.2021 01:00:00 7,9 5,4 18 10 21 11 NW 1018,0 - 0,0
20.01.2021 00:00:00 8,1 5,6 13 7 21 11 NW 1018,7 - 0,0
19.01.2021 23:00:00 8,9 6,0 14 8 23 12 NW 1019,3 - 0,0
19.01.2021 22:00:00 8,8 5,7 19 10 23 12 NW 1019,7 20 0,0
19.01.2021 21:00:00 8,4 5,5 19 10 24 13 NW 1020,1 - 0,0
19.01.2021 20:00:00 7,9 5,2 19 10 31 17 WNW 1020,4 - 0,0
19.01.2021 19:00:00 7,4 4,7 19 10 21 11 NW 1020,6 - 0,0
19.01.2021 18:00:00 7,8 4,2 5 3 8 4 N 1020,8 - 0,0
19.01.2021 17:00:00 7,9 5,0 6 4 9 5 NW 1021,2 - 0,0
19.01.2021 16:00:00 9,1 5,5 0 0 9 5 N 1021,6 20 0,0
19.01.2021 15:00:00 8,6 5,3 5 3 9 5 NNW 1021,8 - 0,0
19.01.2021 14:00:00 7,9 4,7 9 5 16 9 NNW 1022,6 - 0,0
19.01.2021 13:00:00 7,2 3,8 13 7 19 10 NNW 1023,7 20 0,0
19.01.2021 12:00:00 6,8 2,5 15 8 23 12 NNW 1024,8 - 0,2
19.01.2021 11:00:00 - - 17 9 23 12 NNW - - 0,0
19.01.2021 10:00:00 6,1 0,4 16 9 20 11 NW 1025,3 20 0,0
19.01.2021 09:00:00 5,8 0,1 18 10 22 12 NW 1025,2 - 0,0
19.01.2021 08:00:00 5,2 -0,6 20 11 22 12 NW 1025,3 - 0,0
19.01.2021 07:00:00 5,0 -0,2 19 11 21 12 NW 1025,3 - 0,0
19.01.2021 06:00:00 5,1 -0,5 17 9 23 12 NW 1025,3 - 0,0
19.01.2021 05:00:00 4,7 1,5 14 8 17 9 NW 1025,5 - 0,0
19.01.2021 04:00:00 6,1 -0,4 4 2 8 4 NNW 1025,8 - 0,0
19.01.2021 03:00:00 6,8 0,9 3 2 7 4 SSW 1026,3 - 0,0
19.01.2021 02:00:00 6,4 -0,1 5 3 8 4 NW 1026,5 - 0,0
19.01.2021 01:00:00 6,9 -0,8 4 2 10 5 NW 1026,7 - 0,0
19.01.2021 00:00:00 6,9 -0,6 9 5 14 8 NNW 1027,1 - 0,0
18.01.2021 23:00:00 7,2 -0,3 9 5 23 12 WNW 1027,2 - 0,0
18.01.2021 22:00:00 6,9 2,4 14 8 26 14 NNW 1027,2 20 0,0
18.01.2021 21:00:00 8,6 -1,5 15 8 27 15 WNW 1027,2 - 0,0
18.01.2021 20:00:00 9,2 -2,7 7 4 24 13 WNW 1027,1 - 0,0
18.01.2021 19:00:00 9,5 -3,8 18 10 24 13 NW 1026,8 - 0,0
18.01.2021 18:00:00 10,5 -3,2 19 11 33 18 WNW 1026,4 - 0,0
18.01.2021 17:00:00 11,2 -2,6 14 7 36 19 WNW 1025,9 - 0,0
18.01.2021 16:00:00 11,6 -1,6 25 14 41 22 NW 1025,8 - 0,0
18.01.2021 15:00:00 11,4 -1,4 33 18 47 25 WNW 1026,0 - 0,0
18.01.2021 14:00:00 10,7 -1,1 27 15 48 26 NW 1026,4 - 0,0
18.01.2021 13:00:00 10,3 0,3 27 15 51 28 NW 1027,1 - 0,0
18.01.2021 12:00:00 9,2 0,6 31 17 50 27 NW 1027,9 - 0,0
18.01.2021 11:00:00 8,2 0,2 29 16 50 27 NW 1028,5 - 0,0
18.01.2021 10:00:00 7,6 1,4 44 24 60 32 NW 1027,6 20 0,0
18.01.2021 09:00:00 7,5 1,8 39 21 54 29 NNW 1027,3 - 0,0
18.01.2021 08:00:00 7,4 2,1 48 26 56 31 NNW 1026,9 - 0,0
18.01.2021 07:00:00 7,5 1,3 47 26 58 31 NNW 1026,7 - 0,0

tt = Température de l'air
td = dewpoint
ff = Vitesse du vent
fx = gusts
dd = Direction du vent
ppp = reduced air pressure
vv = visibility
rr = Quantités de précipitations

stations d'obs. à proximité